Midland, MI

1:46 AM EDT on August 24, 2016 (GMT -0400)
Barstow

Weather History for KIKW - January, 2013

Change the Weather History Date:

Monday, January 21, 2013

  Actual Average (KMBS) Record (KMBS)
Temperature  
Mean Temperature 8 °F 22 °F  
Max Temperature 14 °F 29 °F 39 °F (1997)
Min Temperature 2 °F 15 °F -2 °F (2000)
Degree Days  
Heating Degree Days 56    
Month to date heating degree days  
Since 1 July heating degree days  
Cooling Degree Days 0    
Month to date cooling degree days  
Year to date cooling degree days  
Moisture  
Dew Point 2 °F    
Average Humidity 69    
Maximum Humidity 86    
Minimum Humidity 48    
Precipitation  
Precipitation 0.00 in 0.05 in 0.25 in (1997)
Month to date precipitation 1.24  
Year to date precipitation 1.24  
Snow  
Snow 0.00 in - - ()
Month to date snowfall  
Since 1 July snowfall  
Snow Depth -    
Sea Level Pressure  
Sea Level Pressure 30.01 in    
Wind  
Wind Speed 7 mph (West)    
Max Wind Speed 18 mph    
Max Gust Speed 25 mph    
Visibility 10 miles    
Events Snow    
T = Trace of Precipitation, MM = Missing Value Source: NWS Daily Summary

Daily Weather History Graph

Daily Weather History Graph

Search for Another Location

Airport or City:

Trip Planner

Search our weather history database for the weather conditions in past years. The results will help you decide how hot, cold, wet, or windy it might be!

Date:

Astronomy

Jan. 21, 2013 Rise Set
Actual Time 8:03 AM EST 5:33 PM EST
Civil Twilight 7:32 AM EST 6:05 PM EST
Nautical Twilight 6:57 AM EST 6:40 PM EST
Astronomical Twilight 6:23 AM EST 7:14 PM EST
Moon 1:12 PM EST (1/21) 3:31 AM EST (1/21)
Length of Visible Light 10h 32m
Length of Day
9h 30m
Waxing Gibbous, 75% of the Moon is Illuminated
Jan 21
Waxing Gibbous
Jan 26
Full
Feb 3
Last Quarter
Feb 10
New
Feb 17
First Quarter

Hourly Weather History & Observations

Time (EST) Temp. Windchill Dew Point Humidity Pressure Visibility Wind Dir Wind Speed Gust Speed Precip Events Conditions
12:13 AM 12.7 °F 5.0 °F 5.7 °F 74% 30.11 in 10.0 mi WSW 4.6 mph - N/A   Overcast
12:34 AM 12.2 °F 4.3 °F 5.7 °F 75% 30.10 in 10.0 mi SW 4.6 mph - N/A   Overcast
12:54 AM 12.6 °F 6.5 °F 6.4 °F 77% 30.09 in 10.0 mi SW 3.5 mph - N/A   Overcast
1:13 AM 12.6 °F 4.8 °F 6.4 °F 77% 30.08 in 10.0 mi SSW 4.6 mph - N/A   Overcast
1:34 AM 12.2 °F - 6.4 °F 78% 30.06 in 10.0 mi Calm Calm - N/A   Mostly Cloudy
1:54 AM 11.5 °F - 6.1 °F 79% 30.05 in 10.0 mi Calm Calm - N/A   Mostly Cloudy
2:13 AM 9.5 °F - 6.1 °F 86% 30.06 in 10.0 mi Calm Calm - N/A   Overcast
2:34 AM 12.0 °F - 7.5 °F 82% 30.05 in 10.0 mi Calm Calm - N/A   Overcast
2:54 AM 12.9 °F 6.9 °F 8.2 °F 82% 30.06 in 10.0 mi SW 3.5 mph - N/A   Overcast
3:13 AM 13.8 °F 6.2 °F 8.6 °F 80% 30.05 in 10.0 mi SW 4.6 mph - N/A   Overcast
3:34 AM 14.4 °F 6.9 °F 9.0 °F 79% 30.04 in 10.0 mi WSW 4.6 mph - N/A   Overcast
3:54 AM 14.5 °F 5.7 °F 9.5 °F 80% 30.03 in 10.0 mi WSW 5.8 mph - N/A   Overcast
4:13 AM 14.7 °F 5.9 °F 9.5 °F 80% 30.02 in 10.0 mi WSW 5.8 mph - N/A   Overcast
4:34 AM 14.5 °F 3.6 °F 9.5 °F 80% 30.02 in 7.0 mi WSW 8.1 mph - N/A   Overcast
4:53 AM 14.5 °F 7.1 °F 9.9 °F 82% 30.00 in 10.0 mi WSW 4.6 mph - N/A   Overcast
5:14 AM 14.5 °F 7.1 °F 10.0 °F 82% 30.00 in 10.0 mi WSW 4.6 mph - N/A   Overcast
5:34 AM 14.5 °F 5.7 °F 9.3 °F 80% 29.99 in 10.0 mi WSW 5.8 mph - N/A   Overcast
5:54 AM 14.7 °F 5.9 °F 9.5 °F 80% 29.99 in 10.0 mi WSW 5.8 mph - N/A   Overcast
6:14 AM 14.9 °F 9.2 °F 10.4 °F 82% 29.99 in 3.0 mi West 3.5 mph - N/A Snow Light Snow
6:33 AM 14.0 °F 3.9 °F 9.5 °F 82% 29.98 in 1.5 mi West 6.9 mph - N/A Snow Light Snow
6:54 AM 13.5 °F 5.8 °F 9.5 °F 84% 29.98 in 5.0 mi West 4.6 mph - N/A Snow Light Snow
7:14 AM 13.1 °F 4.0 °F 7.7 °F 79% 29.98 in 10.0 mi West 5.8 mph - N/A   Mostly Cloudy
7:33 AM 12.2 °F 2.9 °F 6.3 °F 77% 29.98 in 10.0 mi WSW 5.8 mph - N/A   Scattered Clouds
7:54 AM 11.8 °F 3.9 °F 5.9 °F 77% 29.98 in 10.0 mi West 4.6 mph - N/A   Scattered Clouds
8:12 AM 11.8 °F 2.5 °F 5.9 °F 77% 29.98 in 10.0 mi West 5.8 mph - N/A   Clear
8:37 AM 12.2 °F 2.9 °F 5.0 °F 73% 29.98 in 10.0 mi West 5.8 mph - N/A   Clear
8:55 AM 12.4 °F -1.6 °F 5.4 °F 73% 29.97 in 10.0 mi West 11.5 mph - N/A   Clear
9:14 AM 12.2 °F 1.7 °F 5.0 °F 73% 29.97 in 10.0 mi West 6.9 mph - N/A   Clear
9:34 AM 13.6 °F 0.0 °F 5.0 °F 68% 29.97 in 10.0 mi West 11.5 mph 16.1 mph N/A   Scattered Clouds
9:54 AM 13.3 °F 0.3 °F 4.6 °F 68% 29.98 in 10.0 mi WNW 10.4 mph - N/A   Mostly Cloudy
10:14 AM 12.7 °F 0.4 °F 4.8 °F 71% 29.98 in 10.0 mi West 9.2 mph - N/A   Overcast
10:34 AM 13.1 °F -2.6 °F -0.2 °F 55% 29.98 in 10.0 mi West 15.0 mph 21.9 mph N/A   Scattered Clouds
10:54 AM 12.9 °F -0.2 °F -1.3 °F 53% 29.98 in 10.0 mi West 10.4 mph 21.9 mph N/A   Clear
11:14 AM 13.8 °F -1.1 °F -1.1 °F 52% 29.97 in 10.0 mi West 13.8 mph 21.9 mph N/A   Clear
11:34 AM 13.8 °F -1.7 °F -0.4 °F 53% 29.97 in 10.0 mi WNW 15.0 mph 21.9 mph N/A   Mostly Cloudy
11:54 AM 13.3 °F -2.4 °F -1.5 °F 52% 29.96 in 10.0 mi WNW 15.0 mph 25.3 mph N/A   Mostly Cloudy
12:14 PM 13.5 °F -1.5 °F 0.3 °F 56% 29.95 in 10.0 mi WNW 13.8 mph 19.6 mph N/A   Overcast
12:34 PM 12.6 °F -3.3 °F -2.2 °F 52% 29.95 in 10.0 mi West 15.0 mph 21.9 mph N/A   Overcast
12:54 PM 14.0 °F 2.0 °F -2.4 °F 48% 29.94 in 10.0 mi West 9.2 mph 25.3 mph N/A   Overcast
1:14 PM 13.1 °F -2.0 °F -1.3 °F 53% 29.94 in 10.0 mi West 13.8 mph 19.6 mph N/A   Overcast
1:34 PM 13.1 °F -2.6 °F -1.8 °F 51% 29.93 in 10.0 mi West 15.0 mph 20.7 mph N/A   Scattered Clouds
1:54 PM 13.5 °F -2.1 °F -2.7 °F 49% 29.93 in 10.0 mi West 15.0 mph 24.2 mph N/A   Scattered Clouds
2:14 PM 12.0 °F -2.7 °F 1.2 °F 62% 29.94 in 10.0 mi WNW 12.7 mph 20.7 mph N/A   Mostly Cloudy
2:34 PM 11.1 °F -3.9 °F -0.2 °F 60% 29.94 in 10.0 mi West 12.7 mph 20.7 mph N/A   Mostly Cloudy
2:54 PM 13.6 °F 0.0 °F -1.5 °F 51% 29.94 in 10.0 mi West 11.5 mph 20.7 mph N/A   Mostly Cloudy
3:14 PM 12.7 °F -4.6 °F 1.0 °F 60% 29.95 in 7.0 mi WNW 18.4 mph 24.2 mph N/A   Overcast
3:34 PM 10.9 °F -2.6 °F 3.6 °F 72% 29.96 in 1.8 mi West 10.4 mph 19.6 mph N/A Snow Light Snow
3:54 PM 12.0 °F -5.1 °F -1.3 °F 55% 29.96 in 10.0 mi West 17.3 mph 25.3 mph N/A   Mostly Cloudy
4:15 PM 10.2 °F -4.3 °F -0.9 °F 61% 29.97 in 10.0 mi West 11.5 mph 18.4 mph N/A   Mostly Cloudy
4:34 PM 9.3 °F -6.1 °F -0.0 °F 66% 29.98 in 10.0 mi West 12.7 mph 18.4 mph N/A   Scattered Clouds
4:54 PM 9.5 °F -2.6 °F -0.8 °F 63% 29.98 in 10.0 mi WNW 8.1 mph 19.6 mph N/A   Clear
5:14 PM 10.0 °F -5.9 °F -1.7 °F 59% 29.98 in 10.0 mi WNW 13.8 mph 19.6 mph N/A   Mostly Cloudy
5:34 PM 8.4 °F -7.3 °F -1.7 °F 64% 30.00 in 10.0 mi West 12.7 mph 20.7 mph N/A   Scattered Clouds
5:47 PM 7.7 °F -5.8 °F -0.2 °F 70% 30.00 in 10.0 mi West 9.2 mph - N/A   Scattered Clouds
6:15 PM 7.3 °F -4.1 °F -1.8 °F 66% 30.01 in 10.0 mi WNW 6.9 mph 16.1 mph N/A   Clear
6:34 PM 6.8 °F -7.8 °F -2.4 °F 66% 30.02 in 10.0 mi West 10.4 mph - N/A   Clear
6:54 PM 6.4 °F -6.3 °F -0.8 °F 72% 30.02 in 10.0 mi West 8.1 mph - N/A   Scattered Clouds
7:15 PM 5.9 °F -8.0 °F -1.7 °F 71% 30.03 in 10.0 mi West 9.2 mph - N/A   Scattered Clouds
7:54 PM 5.5 °F -10.9 °F -4.0 °F 65% 30.03 in 10.0 mi WNW 12.7 mph - N/A   Clear
8:15 PM 5.4 °F -8.6 °F -4.2 °F 65% 30.04 in 10.0 mi West 9.2 mph 16.1 mph N/A   Clear
8:34 PM 4.6 °F -7.4 °F -3.8 °F 68% 30.04 in 10.0 mi West 6.9 mph - N/A   Clear
8:54 PM 4.5 °F -8.7 °F -4.0 °F 68% 30.04 in 10.0 mi West 8.1 mph - N/A   Clear
9:15 PM 4.1 °F -9.2 °F -4.2 °F 69% 30.05 in 10.0 mi West 8.1 mph - N/A   Clear
9:34 PM 3.9 °F -10.4 °F -4.0 °F 70% 30.05 in 10.0 mi West 9.2 mph - N/A   Clear
9:54 PM 3.7 °F -10.6 °F -4.0 °F 70% 30.05 in 10.0 mi West 9.2 mph - N/A   Clear
10:15 PM 3.6 °F -12.6 °F -4.0 °F 71% 30.06 in 10.0 mi West 11.5 mph - N/A   Clear
10:34 PM 3.6 °F -10.9 °F -4.0 °F 71% 30.06 in 10.0 mi West 9.2 mph - N/A   Clear
10:54 PM 3.2 °F -11.3 °F -4.0 °F 72% 30.06 in 10.0 mi West 9.2 mph 16.1 mph N/A   Clear
11:14 PM 3.2 °F -10.3 °F -4.2 °F 71% 30.07 in 10.0 mi West 8.1 mph 16.1 mph N/A   Clear
11:34 PM 3.2 °F -12.2 °F -4.9 °F 69% 30.07 in 10.0 mi West 10.4 mph 16.1 mph N/A   Clear
11:54 PM 2.8 °F -13.5 °F -5.4 °F 68% 30.08 in 10.0 mi West 11.5 mph - N/A   Clear